STARLINK-32823, 62823

Orbit data source: Space-Track

STARLINK-32823, 62823 is a payload satellite owned by SpaceX/Seattle (US) in LEO that was launched on Fri, 24 Jan 2025 UTC via an FALCON 9 launch vehicle from the Air Force Western Test Range (AFWTR). Payload-class satellites include a variety of spacecraft equipped with specific instruments for various scientific and technological missions. These include communications satellites like Starlink; space stations such as the ISS; scientific satellites like the Hubble; Earth observation satellites from companies like Planet Labs, Umbra, and HawkEye 360; GPS; miniature CubeSats for education and research; and military/defense satellites.

Loading next visibility...
Identifier
62823, 2025-018T
Orbit
LEO
Country
Flag of USUS
Related business
Manufacturer
SpaceX/Seattle
Mission
Operational Commercial Communications
Bus & Motor
STARLINK V2M, Unknown motor
Mass
730 kg wet, ~700 kg dry
Launch date (UTC)
2025-01-24 (1 year ago)
Launch vehicle
FALCON 9
Launch site
Air Force Western Test Range (AFWTR)
Object type
Payload
Rocket body
Debris
Shape & HBR
Box + 2 Pan, 17.7 m
Radar Cross Section
33.884 m², Large (>1 m²)

Expand to show TLE details & history
Last TLE update: 7 hours ago

TLE from 7 hours ago
0 STARLINK-32823
1 62823U 25018T   26126.83335647  .01809036  00000-0  17180-1 0  9998
2 62823  53.1663  37.8229 0001027  90.3617 291.8903 15.63329852  5869
Epoch: 2026-05-06T20:00Z
TLE epoch observation values (Epoch: 2026-05-06T20:00:01.999Z)
Latitude
17.664°
Longitude
-113.15307°
Altitude
378.103 km
Speed
7.686 km/s
True Right ascension
03h 26m 10s
True Declination
17° 33' 33"
Sunlit
Object was in daylight at epoch
Visualization orbit readout
Latitude
Unknown
Longitude
Unknown
Altitude
Unknown
Speed
Unknown
Apparent Right ascension
Unknown
Apparent Declination
Unknown
Sunlit
N/A
Visualization observer readout
Local Sidereal Time
11:28:04
Azimuth
Unknown
Elevation
Unknown
Doppler factor
Unknown
Orbital elements
Apogee altitude
378.999 km
Perigee altitude
377.611 km
Semi-major axis
6,756.442 km
Eccentricity
0.0001
Inclination
53.1663°
RAAN
37.8229°
Arg. of periapsis
90.3617°
True anomaly
291.87938°
Mean anomaly
291.8903°
Eccentric anomaly
291.88484°
Mean motion
3.9081 °/min
Orbital period
92.12 mins
BSTAR
0.01718
Loading maneuver chart data...
Computing Atmospheric mass density...
Loading historical data...
Loading historical data...
Loading historical data...
Loading historical data...
Loading historical data...
Loading historical data...
Loading historical data...

Documentation

Showing up to 5 results
|